Flag for Austria Weather past 2 weeks in Eisenstadt, Burgenland, Austria

Now
41 °F

Quite cool.


Feels Like: 41 °F
Forecast: 38 / 54 °F
Wind: 1 mph from South

Location: Eisenstadt

Current Time: Oct 25, 2014 at 10:00:35 AM

Latest Report: Oct 25, 2014 at 9:00 AM


Visibility: N/A

Pressure: 30.25 "Hg

Humidity: 85%

Dew point: 37 °F

Location of EisenstadtLocation

Historic Weather in Eisenstadt — Graph

°F

Eisenstadt temperature yesterday

Maximum temperature yesterday: 51 °F (at 1:00 PM)
Minimum temperature yesterday: 42 °F (at 11:00 PM)
Average temperature yesterday: 48 °F

Past Weeks' High & Low Weather Summary

 TemperatureHumidityPressure
High72 °F (Oct 20, 1:00 PM)100% (Oct 11, 8:00 AM)30.32 "Hg (Oct 11, 8:00 AM)
Low40 °F (Oct 25, 8:00 AM)52% (Oct 14, 3:00 PM)29.61 "Hg (Oct 22, 1:00 AM)
Average57 °F83%29.94 "Hg
* Reported Oct 10 8:00 AM — Oct 25 8:00 AM, Eisenstadt, Weather by CustomWeather, © 2014

Note: Actual official high and low records may vary slightly from our data, if they occured in-between our weather recording intervals... More about our weather records

Advertising

Eisenstadt weather history for previous 24 hours

 ConditionsComfort  
Time TempWeatherWind HumidityBarometerVisibility
8:00 AM
Oct 25
40 °FOvercast.No wind90%30.24 "Hg5 mi
7:00 AM41 °FOvercast.1 mph88%30.22 "Hg6 mi
6:00 AM41 °FOvercast.1 mph85%30.22 "Hg6 mi
5:00 AM41 °FOvercast.1 mph85%30.22 "Hg6 mi
4:00 AM41 °FOvercast.1 mph82%30.22 "Hg6 mi
3:00 AM41 °FQuite cool.2 mph82%30.22 "HgN/A
2:00 AM41 °FOvercast.1 mph82%30.22 "Hg6 mi
1:00 AM41 °FQuite cool.2 mph86%30.22 "HgN/A
12:00 AM41 °FFog.1 mph86%30.22 "HgN/A
11:00 PM
Oct 24
42 °FFog.1 mph83%30.22 "Hg6 mi
10:00 PM43 °FQuite cool.1 mph80%30.19 "HgN/A
9:00 PM45 °FQuite cool.6 mph78%30.15 "HgN/A
8:00 PM47 °FOvercast.6 mph77%30.13 "Hg6 mi
7:00 PM48 °FOvercast.7 mph74%30.12 "Hg6 mi
6:00 PM49 °FCool.5 mph72%30.10 "HgN/A
5:00 PM51 °FOvercast.6 mph68%30.08 "Hg5 mi
4:00 PM51 °FCool.6 mph70%30.08 "HgN/A
3:00 PM50 °FCool.7 mph70%30.08 "HgN/A
2:00 PM51 °FOvercast.7 mph68%30.09 "Hg5 mi
1:00 PM51 °FCool.6 mph70%30.09 "HgN/A
12:00 PM49 °FCool.7 mph72%30.10 "HgN/A
11:00 AM48 °FOvercast.6 mph74%30.09 "Hg9 mi
10:00 AM47 °FCool.8 mph76%30.08 "HgN/A
Weather by CustomWeather, © 2014

See weather overviewHow to use our weather pages